DW9727 Weather Reports


time (UTC)temp
C
wind
direction
speed
KPH
gust
KPH
rain 1hr
cm
rain 24hr
cm
rain mn
cm
humidity
%
barometer
mb
20260508203711 25 294 14.5 29.0 0.00 0.00 0.00 32 1005.2
20260508202711 23 271 14.5 24.1 0.00 0.00 0.00 33 1005.3
20260508201710 23 9 11.3 19.3 0.00 0.00 0.00 33 1005.4
20260508194710 23 302 14.5 19.3 0.00 0.00 0.00 33 1005.8
20260508193710 25 304 9.7 24.1 0.00 0.00 0.00 28 1005.8
20260508192710 25 269 11.3 25.7 0.00 0.00 0.00 28 1005.9
20260508191710 24 288 16.1 32.2 0.00 0.00 0.00 30 1006.2
20260508190710 23 322 16.1 22.5 0.00 0.00 0.00 35 1006.4
20260508185710 23 313 9.7 27.4 0.00 0.00 0.00 31 1006.4
20260508184711 23 321 16.1 38.6 0.00 0.00 0.00 31 1006.5
20260508183711 24 251 12.9 25.7 0.00 0.00 0.00 33 1006.5
20260508182710 23 294 9.7 22.5 0.00 0.00 0.00 33 1006.5
20260508181711 23 327 20.9 40.2 0.00 0.00 0.00 34 1006.7
20260508180710 23 209 17.7 25.7 0.00 0.00 0.00 32 1006.7
20260508175711 23 326 9.7 19.3 0.00 0.00 0.00 40 1006.8
20260508174711 22 260 8.0 19.3 0.00 0.00 0.00 36 1006.8
20260508173710 22 234 8.0 16.1 0.00 0.00 0.00 34 1006.8
20260508170711 22 218 11.3 20.9 0.00 0.00 0.00 34 1007.5
20260508165711 23 221 9.7 20.9 0.00 0.00 0.00 34 1007.7
20260508164710 22 333 3.2 16.1 0.00 0.00 0.00 38 1007.7
20260508163710 22 223 11.3 22.5 0.00 0.00 0.00 36 1007.9
20260508162711 22 218 6.4 22.5 0.00 0.00 0.00 37 1007.8
20260508161711 21 221 4.8 19.3 0.00 0.00 0.00 35 1007.9
20260508160711 21 220 11.3 20.9 0.00 0.00 0.00 39 1008.0
20260508155711 21 246 9.7 20.9 0.00 0.00 0.00 40 1008.1
20260508154711 21 277 4.8 14.5 0.00 0.00 0.00 41 1008.1
20260508152710 20 248 9.7 16.1 0.00 0.00 0.00 41 1008.3
20260508151711 20 261 6.4 12.9 0.00 0.00 0.00 41 1008.3
20260508150710 19 272 8.0 14.5 0.00 0.00 0.00 42 1008.4
20260508145711 19 237 6.4 11.3 0.00 0.00 0.00 45 1008.4
20260508144710 18 218 8.0 11.3 0.00 0.00 0.00 47 1008.6
20260508142710 18 234 3.2 8.0 0.00 0.00 0.00 49 1008.6
20260508141710 17 258 3.2 9.7 0.00 0.00 0.00 53 1008.7
20260508140710 17 261 1.6 3.2 0.00 0.00 0.00 52 1008.6
20260508135710 17 246 1.6 4.8 0.00 0.00 0.00 53 1008.6
20260508133710 16 217 0.0 4.8 0.00 0.00 0.00 55 1008.5
20260508131710 15 86 0.0 1.6 0.00 0.00 0.00 62 1008.5
20260508125710 12 121 0.0 0.0 0.00 0.00 0.00 66 1008.4
20260508124710 12 121 0.0 0.0 0.00 0.00 0.00 68 1008.4
20260508123710 11 121 0.0 0.0 0.00 0.00 0.00 69 1008.4
20260508122710 11 109 0.0 0.0 0.00 0.00 0.00 70 1008.2
20260508121710 11 109 0.0 0.0 0.00 0.00 0.00 69 1008.2
20260508120710 11 109 0.0 0.0 0.00 0.00 0.00 67 1008.0
20260508115710 11 109 0.0 0.0 0.00 0.00 0.00 67 1008.1
20260508114710 11 109 0.0 0.0 0.00 0.00 0.00 65 1008.2
20260508113710 11 109 0.0 0.0 0.00 0.00 0.00 64 1008.2
20260508112711 11 109 0.0 0.0 0.00 0.00 0.00 63 1008.1
20260508111710 11 109 0.0 3.2 0.00 0.00 0.00 64 1008.1
20260508110710 11 107 0.0 3.2 0.00 0.00 0.00 63 1008.1
20260508105710 11 99 0.0 1.6 0.00 0.00 0.00 62 1008.5
20260508104710 11 98 0.0 4.8 0.00 0.00 0.00 60 1008.4
20260508103710 11 157 1.6 9.7 0.00 0.00 0.00 60 1008.5
20260508101710 12 175 3.2 4.8 0.00 0.00 0.00 54 1008.9
20260508100710 12 130 4.8 11.3 0.00 0.00 0.00 55 1009.3
20260508095711 12 329 4.8 16.1 0.00 0.00 0.00 47 1009.6
20260508094711 11 65 6.4 14.5 0.00 0.00 0.00 54 1009.4
20260508093711 11 53 3.2 4.8 0.00 0.00 0.00 53 1009.5
20260508092711 11 65 0.0 0.0 0.00 0.00 0.00 49 1009.3
20260508091710 12 65 0.0 3.2 0.00 0.00 0.00 47 1009.0
20260508090710 12 73 0.0 4.8 0.00 0.00 0.00 45 1009.0
20260508085710 12 107 0.0 3.2 0.00 0.00 0.00 44 1009.0
20260508084710 12 140 1.6 4.8 0.00 0.00 0.00 44 1009.0
20260508083711 12 121 1.6 4.8 0.00 0.00 0.00 43 1009.1
20260508082710 12 26 1.6 4.8 0.00 0.00 0.00 44 1008.9
20260508081710 12 61 3.2 8.0 0.00 0.00 0.00 43 1009.0
20260508080710 12 68 1.6 8.0 0.00 0.00 0.00 45 1008.9
20260508075711 12 34 3.2 8.0 0.00 0.00 0.00 45 1009.0
20260508072710 12 38 0.0 3.2 0.00 0.00 0.00 42 1009.4
20260508071710 12 38 3.2 4.8 0.00 0.00 0.00 42 1009.2
20260508070710 12 134 0.0 3.2 0.00 0.00 0.00 39 1009.4
20260508064710 13 96 1.6 4.8 0.00 0.00 0.00 40 1009.2
20260508063710 13 160 3.2 4.8 0.00 0.00 0.00 37 1009.8
20260508062710 13 55 1.6 9.7 0.00 0.00 0.00 39 1009.4
20260508054710 13 105 3.2 8.0 0.00 0.00 0.00 36 1009.2
20260508053711 13 71 3.2 4.8 0.00 0.00 0.00 37 1009.2
20260508052710 13 68 1.6 4.8 0.00 0.00 0.00 37 1009.2
20260508051711 13 79 3.2 4.8 0.00 0.00 0.00 39 1009.1
20260508050710 13 80 1.6 4.8 0.00 0.00 0.00 40 1009.3
20260508044710 13 49 1.6 4.8 0.00 0.00 0.00 36 1009.0
20260508043710 13 49 3.2 4.8 0.00 0.00 0.00 36 1009.2
20260508041711 13 110 0.0 0.0 0.00 0.00 0.00 36 1009.4
20260508040710 14 110 0.0 3.2 0.00 0.00 0.00 36 1009.4
20260508035711 14 68 0.0 3.2 0.00 0.00 0.00 34 1009.4
20260508033710 14 90 0.0 3.2 0.00 0.00 0.00 35 1009.4
20260508032711 14 86 1.6 3.2 0.00 0.00 0.00 36 1009.4
20260508030710 13 51 0.0 0.0 0.00 0.00 0.00 35 1009.3
20260508025710 13 48 0.0 4.8 0.00 0.00 0.00 36 1009.1
20260508024710 13 89 1.6 3.2 0.00 0.00 0.00 36 1009.2
20260508022711 14 98 1.6 3.2 0.00 0.00 0.00 37 1008.9
20260508021710 15 64 0.0 3.2 0.00 0.00 0.00 35 1008.9
20260508020710 15 64 0.0 4.8 0.00 0.00 0.00 33 1008.5
20260508015710 15 53 1.6 4.8 0.00 0.00 0.00 32 1008.6
20260508014710 16 46 1.6 4.8 0.00 0.00 0.00 30 1008.6
20260508013711 17 45 3.2 4.8 0.00 0.00 0.00 28 1008.5
20260508012710 17 55 1.6 8.0 0.00 0.00 0.00 28 1008.4
20260508011710 18 36 1.6 4.8 0.00 0.00 0.00 27 1008.4
20260508010710 18 24 1.6 4.8 0.00 0.00 0.00 25 1008.4
20260508005710 19 13 4.8 12.9 0.00 0.00 0.00 24 1008.3
20260508004710 20 314 3.2 14.5 0.00 0.00 0.00 28 1008.3
20260508002710 20 322 3.2 12.9 0.00 0.00 0.00 26 1008.1
20260508001711 21 5 4.8 12.9 0.00 0.00 0.00 25 1008.3
20260507235710 21 268 11.3 22.5 0.00 0.00 0.00 27 1008.2
20260507234711 20 317 6.4 19.3 0.00 0.00 0.00 27 1008.1
20260507230711 21 319 14.5 22.5 0.00 0.00 0.00 27 1008.1
20260507225711 22 295 14.5 22.5 0.00 0.00 0.00 27 1008.3
20260507224710 21 321 9.7 19.3 0.00 0.00 0.00 27 1008.2
20260507223710 22 304 4.8 20.9 0.00 0.00 0.00 26 1008.1
20260507222710 22 297 4.8 19.3 0.00 0.00 0.00 28 1008.2
20260507221710 22 324 14.5 22.5 0.00 0.00 0.00 28 1008.2
20260507220710 22 321 16.1 24.1 0.00 0.00 0.00 29 1008.2
20260507215710 21 270 4.8 22.5 0.00 0.00 0.00 24 1008.3
20260507214711 22 258 11.3 25.7 0.00 0.00 0.00 27 1008.3
20260507212710 22 252 8.0 19.3 0.00 0.00 0.00 26 1008.4
20260507211710 21 261 8.0 22.5 0.00 0.00 0.00 31 1008.5
20260507210710 22 298 14.5 29.0 0.00 0.00 0.00 29 1008.6